[Date Prev][Date Next][Thread Prev][Thread Next] - [Date Index][Thread Index][Author Index]

2 Line ISS Keps 10-20



ISS
1 25544U 98067A   01293.24189815  .00059062  00000-0  79079-3 0  6256
2 25544  51.6395 179.6466 0008056 221.7126 273.0170 15.57388324166593


----
Via the sarex mailing list at AMSAT.ORG courtesy of AMSAT-NA.
To unsubscribe, send "unsubscribe sarex" to Majordomo@amsat.org



AMSAT Top AMSAT Home